Location: Bh?mavarapp?du
(16.7041°N, 80.6518°E)
Time: 03:21:35
(UTC+00:00)

SJ-11-01 - Pass Details

Date: 21 April 2021
Orbit: 683 x 702 km, 98.0° (Epoch: 15 May)

Event Time Altitude Azimuth Distance (km) Brightness Sun altitude
Rises 13:43:44 0° 171° (S) 3,074 7.4 -12.3°
Reaches altitude 10° 13:45:59 10° 173° (S) 2,158 6.6 -12.8°
Maximum altitude 13:50:42 75° 258° (WSW) 726 4.5 -13.9°
Drops below altitude 10° 13:55:26 10° 344° (NNW) 2,160 7.3 -14.9°
Sets 13:57:41 0° 346° (NNW) 3,077 8.1 -15.5°
